Skip Page Navigation
NASA JPL Caltech
NASA Logo - Jet Propulsion Laboratory + View the NASA Portal
+ Center for Near-Earth Object Studies
JPL Home Earth Solar System Stars & Galaxies Technology
JPL Solar System Dynamics
BODIES ORBITS EPHEMERIDES TOOLS PHYSICAL DATA DISCOVERY FAQ SITE MAP
IMPORTANT: The SSD Announcement email list is now available. Major changes are coming in the near future, including possible hostname and/or URL changes. To be notified of such changes, subscribe to this email list.

Please visit this page for more details.


JPL Small-Body Database Browser
Search: [ help ]  
85413 (1996 VK11)
Classification: Main-belt Asteroid          SPK-ID: 2085413
Ephemeris | Orbit Diagram | Orbital Elements | Mission Design | Physical Parameters | Discovery Circumstances | Close-Approach Data ]

[ show orbit diagram ]
Orbital Elements at Epoch 2458600.5 (2019-Apr-27.0) TDB
Reference: JPL 10 (heliocentric ecliptic J2000)
 Element Value Uncertainty (1-sigma)   Units 
e .1140990743896694 8.9975e-08  
a 3.0408442603726 2.1977e-08 au
q 2.693886744900948 2.7192e-07 au
i 9.812000565643151 9.2874e-06 deg
node 346.9476522163597 3.1895e-05 deg
peri 343.4065733566593 4.1827e-05 deg
M 131.8415538607853 2.8692e-05 deg
tp 2457891.184409012289
(2017-May-17.68440901)
0.00015278 TDB
period 1936.82192964147
5.30
2.0997e-05
5.749e-08
d
yr
n .1858715013964348 2.015e-09 deg/d
Q 3.387801775844253 2.4484e-08 au
  Orbit Determination Parameters
   # obs. used (total)      340  
   data-arc span      9041 days (24.75 yr)  
   first obs. used      1994-04-15  
   last obs. used      2019-01-15  
   planetary ephem.      DE431  
   SB-pert. ephem.      SB431-N16  
   condition code      0  
   norm. resid. RMS      .63712  
   source      ORB  
   producer      Otto Matic  
   solution date      2019-Jul-13 06:03:24  

Additional Information
 Earth MOID = 1.68431 au 
 Jupiter MOID = 1.98593 au 
 T_jup = 3.208 
[ show covariance matrix ]

Ephemeris | Orbit Diagram | Orbital Elements | Mission Design | Physical Parameters | Discovery Circumstances | Close-Approach Data ]

Physical Parameter Table
Parameter Symbol Value Units Sigma Reference Notes
absolute magnitude H 15.3   n/a MPO422236  

85413 (1996 VK11)          Discovered 1996-Nov-04 by Spacewatch at Kitt Peak
Reference: 20040830/Numbers.arcLast Updated: 2004-09-06

[ show close-approach data ]
Alternate Designations
 1996 VK11 = 1999 EO10 = 2001 QY232 
Ephemeris | Orbit Diagram | Orbital Elements | Mission Design | Physical Parameters | Discovery Circumstances | Close-Approach Data ]
ABOUT SSD CREDITS/AWARDS PRIVACY/COPYRIGHT GLOSSARY LINKS
FirstGov
(server date/time)  
NASA Home Page
Site Manager:   Ryan S. Park
Webmaster  Alan B. Chamberlin